Wind_Speed
11 10 9 9 9 9 9 9 9 9 10 9 10 10 10 10 10 10 10 10 10 10 10 11 11 12 11 10 10 11 11 11 11 10 10 10 11 11 12 12 12 12 12
11 10 10 9 9 9 9 9 9 9 9 10 10 10 10 10 10 10 10 10 10 11 12 12 12 11 12 11 10 11 11 11 12 12 11 11 11 12 12 12 12 13 13
11 10 10 9 9 9 10 9 9 9 9 10 11 11 11 11 11 11 11 11 11 11 11 12 11 11 11 11 10 10 11 12 12 13 13 13 13 13 13 13 13 14 15
11 11 10 10 10 10 10 10 10 10 10 10 10 10 11 11 11 12 12 12 11 11 11 11 11 11 11 11 11 11 11 12 13 13 14 14 15 14 14 14 15 15 16
11 11 11 10 11 11 11 11 11 11 11 10 11 11 11 11 12 12 13 12 12 12 12 11 11 11 12 12 12 12 12 12 12 13 14 14 15 15 15 14 15 15 16
11 11 10 10 11 11 12 11 11 10 10 10 10 11 11 12 12 12 12 12 12 12 13 13 12 12 12 12 12 12 12 13 13 13 14 14 14 15 15 15 15 15 16
11 10 10 11 12 12 12 11 11 11 10 10 11 11 12 12 12 13 12 12 12 12 13 13 13 13 13 13 13 13 13 14 14 13 13 15 15 15 15 15 15 14 14
11 10 11 11 12 12 11 11 11 11 11 11 12 11 12 12 13 13 13 13 13 14 13 14 14 14 14 13 13 14 14 14 14 14 14 15 15 15 15 15 14 14 14
12 12 12 12 11 11 11 11 12 12 12 13 12 12 12 13 13 13 13 13 14 14 14 14 14 14 14 14 14 14 15 15 15 14 15 15 15 15 15 15 15 14 14
12 12 12 11 11 11 12 12 12 13 13 13 13 13 13 13 13 13 14 14 14 14 14 14 14 14 14 14 14 15 16 16 15 15 15 15 15 15 15 16 16 15 16
12 12 11 11 11 11 12 12 12 12 13 12 12 13 13 14 13 14 14 14 14 14 14 14 14 14 14 14 15 16 16 16 15 16 16 16 16 15 16 16 17 17 18
13 12 11 11 12 11 11 11 11 11 11 12 12 12 12 13 13 14 13 13 13 13 14 14 14 15 15 15 16 16 16 16 16 16 15 16 16 16 17 17 18 18 18
13 12 12 12 11 11 11 11 10 11 11 11 12 12 12 12 12 12 12 13 13 14 14 15 15 16 16 16 16 15 15 16 16 15 15 15 16 17 18 18 18 18 19
13 12 12 12 11 11 11 11 11 10 11 11 11 11 10 10 11 11 12 12 12 13 14 14 15 15 16 16 16 15 16 16 16 15 15 15 16 17 18 18 19 19 18
14 13 12 12 12 12 11 11 11 11 11 11 11 11 11 10 10 10 11 12 12 13 13 14 14 14 15 15 15 16 16 16 17 16 16 16 17 17 17 16 17 18 18
14 13 13 12 12 12 11 11 11 11 12 11 11 11 11 10 10 10 11 12 12 12 13 13 14 14 14 14 15 15 16 16 16 16 16 16 16 17 17 17 17 18 18
14 13 13 13 12 12 12 12 12 12 12 12 12 12 11 11 11 12 12 12 12 13 13 13 14 14 14 14 15 15 15 14 15 16 16 16 16 16 16 17 17 18 18
15 14 15 14 14 14 14 13 13 13 13 13 13 13 12 12 12 13 13 13 14 14 14 14 14 14 14 15 15 15 15 14 15 15 16 16 16 16 17 17 17 18 19
15 15 16 15 15 16 15 15 15 15 14 14 13 13 13 13 13 13 13 14 15 15 15 15 15 15 15 15 15 15 15 15 16 16 16 16 17 18 18 18 19 20 20
16 16 16 16 16 17 16 16 15 15 14 14 13 13 14 14 14 13 14 14 15 16 15 16 16 15 16 16 16 15 16 16 17 16 16 17 18 18 19 19 19 20 20
16 16 16 16 16 17 16 15 15 15 15 15 15 15 15 15 15 15 15 16 16 16 16 17 17 16 16 16 16 16 16 16 17 17 17 19 19 19 18 18 18 18 19
16 16 16 16 16 17 16 15 15 15 15 16 16 16 16 15 16 16 16 16 16 16 16 17 16 16 16 17 17 16 16 17 18 19 19 18 18 18 19 19 19 19 19
17 18 17 17 16 15 15 16 16 17 16 16 16 16 16 16 16 16 16 16 16 16 16 17 16 16 16 17 17 18 18 19 19 19 19 18 18 19 19 19 19 19 19
18 18 17 17 17 17 17 16 16 17 17 17 16 16 16 16 16 17 17 17 17 17 17 17 17 17 16 16 17 18 19 19 19 19 19 19 19 19 19 19 19 19 20
17 17 17 17 17 18 18 17 17 17 17 17 17 17 17 17 17 17 17 17 18 18 18 18 18 18 18 18 18 18 19 20 20 20 20 20 20 20 20 20 20 20 21
17 17 18 18 18 18 18 18 18 18 18 18 18 19 19 19 19 19 18 18 18 19 19 19 19 19 19 19 19 18 19 20 20 21 21 22 21 21 21 21 22 22 22
Wind_Direction
294 289 285 281 279 275 271 270 271 267 263 262 260 259 260 257 261 262 263 264 265 266 267 267 269 271 275 279 279 276 273 267 264 262 260 258 257 256 258 255 250 255 260
294 292 288 285 280 278 273 272 270 268 266 263 262 264 262 260 260 262 262 265 266 266 265 267 268 270 276 279 280 279 273 267 264 262 261 263 263 260 256 255 257 256 258
296 296 292 287 285 284 281 276 275 271 269 269 267 265 263 264 264 264 265 266 267 269 270 268 267 273 277 279 278 280 277 273 271 265 262 263 264 260 258 262 266 261 257
299 296 293 288 284 285 283 280 279 273 274 274 267 264 262 264 265 265 267 267 268 267 270 269 271 273 275 277 276 282 286 281 276 273 270 268 266 264 265 266 263 262 259
298 295 292 286 285 283 284 282 282 278 273 271 267 267 267 267 267 269 269 269 269 267 271 274 278 279 278 278 281 281 284 287 283 278 275 273 265 263 266 265 262 260 258
299 296 291 288 286 285 287 287 282 277 272 270 269 269 269 267 268 270 271 273 271 267 271 274 275 278 278 278 281 280 282 286 283 281 280 275 271 271 269 265 261 261 260
299 295 294 292 294 291 285 282 282 279 276 273 273 273 270 267 268 271 271 271 272 272 273 274 275 277 277 276 278 280 282 283 283 283 283 276 271 271 269 266 264 263 261
299 297 295 292 292 293 286 278 279 278 278 277 277 275 273 272 269 271 272 272 273 275 275 275 276 275 274 276 278 279 282 282 281 286 284 283 278 271 268 265 264 262 261
300 299 297 291 288 287 287 279 277 278 278 278 277 276 277 275 270 271 273 272 272 273 274 275 277 274 273 276 277 278 280 280 280 284 285 284 281 271 269 267 264 264 266
301 299 298 292 290 289 286 283 279 277 276 277 276 277 278 276 273 272 273 274 274 273 273 275 275 275 276 279 279 278 280 279 279 282 283 282 281 274 269 268 268 268 267
305 302 298 296 291 291 288 285 282 277 275 277 281 281 278 276 277 276 275 274 275 275 275 275 276 277 278 280 279 278 279 278 278 281 280 282 280 275 271 269 268 271 269
303 299 295 297 296 295 289 287 285 280 278 281 282 282 279 279 280 277 277 277 275 275 276 276 278 278 278 280 280 279 278 279 279 281 278 278 279 275 273 271 269 270 271
301 295 295 295 296 295 289 288 286 285 284 284 285 285 286 285 284 280 281 280 279 279 279 278 277 278 278 281 280 280 278 280 282 281 278 277 278 276 274 272 273 272 272
298 293 292 294 296 296 290 288 284 286 288 289 289 291 296 296 295 288 283 282 283 282 281 280 280 278 277 281 282 280 279 280 283 281 280 281 282 280 274 272 272 273 273
293 291 289 290 293 295 291 288 286 288 287 285 289 292 297 298 298 294 288 286 287 286 282 282 284 280 282 284 283 283 281 282 284 285 281 282 285 285 280 279 277 277 280
288 289 287 288 290 291 288 288 287 289 286 284 290 290 292 291 298 300 297 295 293 291 291 293 291 290 288 286 284 282 285 284 285 286 286 284 286 286 281 281 283 284 284
287 288 290 288 289 289 287 284 283 285 285 288 288 287 286 289 292 295 298 298 298 298 298 295 291 290 287 288 288 288 288 286 288 289 288 287 286 286 283 282 283 285 286
285 286 289 288 287 287 286 285 282 285 285 286 287 288 286 287 292 294 294 294 295 296 298 297 293 290 289 288 286 287 286 285 289 290 291 290 288 287 284 281 282 283 285
286 286 288 286 285 283 283 282 282 282 284 286 286 287 285 287 292 295 294 295 295 294 295 295 292 290 290 289 288 288 286 287 290 290 291 291 289 288 288 286 285 286 287
289 288 286 288 286 281 280 281 281 281 283 286 286 287 289 291 291 293 293 295 295 294 294 295 293 289 289 289 289 288 287 287 287 290 292 293 293 290 289 288 286 287 289
289 288 288 290 288 283 278 279 280 280 283 285 286 288 290 290 289 291 291 294 295 292 293 293 292 291 290 291 290 289 290 289 288 290 291 292 292 290 288 289 288 290 289
290 289 288 288 285 282 279 276 277 279 283 286 286 286 288 290 291 291 290 292 291 291 290 291 291 292 294 293 291 288 290 290 290 292 292 293 292 290 287 286 288 290 290
287 288 286 286 285 282 279 277 277 278 281 285 286 286 289 291 290 289 291 293 293 292 292 291 290 293 294 294 294 291 293 292 291 291 292 292 290 290 289 288 290 292 292
282 283 285 285 285 282 280 278 277 278 281 284 286 286 287 290 289 289 290 290 290 291 292 293 293 294 294 294 295 293 292 292 293 291 291 292 292 292 290 289 289 289 290
279 280 281 284 282 279 278 278 278 279 280 282 285 287 288 289 289 291 290 290 291 293 292 290 289 291 292 293 293 293 292 292 292 291 292 293 293 292 291 289 288 288 288
273 277 280 282 280 277 277 277 278 279 279 280 282 284 287 289 290 291 292 292 292 294 293 291 290 290 291 292 291 292 292 290 290 292 292 292 293 292 291 288 286 287 288
Height
5865 5865 5865 5865 5865 5865 5865 5866 5866 5867 5867 5867 5868 5869 5869 5870 5870 5871 5871 5872 5872 5872 5873 5873 5874 5874 5874 5873 5873 5873 5873 5873 5874 5874 5875 5875 5876 5876 5876 5877 5877 5878 5878
5863 5863 5863 5863 5863 5863 5863 5864 5864 5865 5865 5865 5866 5866 5867 5868 5868 5869 5869 5869 5870 5870 5871 5871 5871 5871 5871 5871 5871 5870 5871 5871 5871 5872 5872 5873 5873 5873 5873 5874 5874 5875 5875
5861 5861 5861 5861 5861 5861 5861 5862 5862 5862 5863 5863 5863 5864 5864 5865 5865 5866 5866 5867 5867 5868 5868 5869 5869 5869 5869 5868 5868 5868 5868 5868 5869 5869 5869 5870 5870 5870 5870 5870 5871 5871 5872
5859 5859 5859 5859 5859 5859 5859 5860 5860 5860 5861 5861 5861 5862 5862 5863 5863 5863 5864 5864 5865 5865 5866 5866 5866 5866 5866 5866 5866 5866 5866 5865 5866 5866 5866 5866 5866 5866 5866 5867 5867 5867 5868
5857 5857 5857 5856 5856 5857 5857 5857 5858 5858 5858 5859 5859 5860 5860 5860 5860 5861 5861 5862 5862 5862 5863 5863 5863 5863 5863 5863 5863 5863 5863 5863 5862 5862 5862 5862 5862 5862 5863 5863 5863 5863 5864
5855 5855 5854 5854 5854 5854 5854 5855 5855 5855 5856 5856 5857 5857 5857 5857 5858 5858 5858 5858 5859 5859 5859 5859 5859 5860 5860 5860 5860 5860 5860 5860 5859 5859 5858 5858 5858 5858 5858 5858 5858 5859 5860
5853 5853 5853 5852 5852 5852 5852 5852 5853 5853 5853 5854 5854 5854 5854 5854 5854 5854 5855 5855 5855 5856 5856 5856 5856 5856 5857 5857 5857 5857 5856 5856 5856 5855 5854 5854 5853 5853 5853 5854 5854 5855 5856
5851 5851 5851 5850 5850 5850 5850 5850 5850 5850 5851 5851 5851 5851 5851 5852 5851 5851 5851 5852 5852 5852 5852 5853 5853 5853 5853 5853 5853 5853 5853 5852 5852 5851 5851 5850 5848 5848 5849 5850 5850 5851 5852
5849 5849 5848 5848 5848 5848 5847 5847 5847 5848 5848 5848 5848 5848 5848 5848 5848 5848 5847 5848 5848 5848 5849 5849 5849 5849 5849 5850 5850 5849 5849 5849 5848 5848 5847 5846 5845 5845 5846 5846 5847 5847 5848
5847 5846 5846 5845 5845 5845 5845 5845 5845 5845 5845 5845 5845 5845 5845 5844 5844 5844 5845 5844 5844 5844 5845 5845 5845 5845 5845 5846 5846 5845 5845 5845 5844 5844 5844 5843 5842 5842 5843 5843 5843 5843 5843
5845 5844 5843 5843 5843 5843 5842 5842 5842 5842 5842 5842 5842 5842 5841 5841 5841 5841 5841 5841 5841 5841 5841 5841 5841 5841 5841 5841 5841 5841 5841 5841 5841 5840 5840 5839 5839 5839 5839 5839 5839 5839 5839
5843 5842 5841 5841 5840 5840 5840 5840 5839 5839 5839 5839 5839 5838 5838 5838 5837 5837 5837 5837 5837 5838 5838 5838 5838 5837 5837 5837 5837 5837 5837 5837 5837 5836 5836 5835 5835 5835 5835 5835 5835 5835 5835
5841 5840 5840 5839 5838 5838 5838 5837 5837 5837 5837 5837 5836 5836 5835 5834 5834 5834 5834 5834 5833 5834 5834 5834 5834 5833 5833 5833 5833 5833 5832 5832 5832 5832 5832 5831 5831 5831 5830 5830 5830 5830 5830
5838 5838 5837 5837 5836 5835 5835 5835 5834 5834 5834 5834 5834 5833 5832 5832 5831 5831 5831 5830 5830 5830 5830 5830 5830 5829 5829 5829 5829 5829 5828 5828 5828 5828 5828 5827 5827 5826 5826 5826 5825 5825 5825
5836 5835 5835 5834 5834 5833 5833 5832 5832 5832 5832 5832 5831 5831 5830 5830 5829 5828 5828 5828 5828 5827 5827 5827 5826 5826 5826 5825 5825 5825 5824 5824 5824 5824 5823 5823 5822 5822 5821 5821 5821 5820 5820
5833 5832 5832 5831 5831 5830 5830 5830 5830 5829 5829 5829 5828 5828 5828 5827 5827 5826 5825 5825 5824 5824 5824 5823 5823 5822 5822 5822 5821 5820 5820 5820 5820 5819 5819 5818 5818 5817 5817 5817 5816 5816 5815
5829 5829 5829 5828 5828 5827 5827 5827 5827 5827 5827 5826 5826 5825 5825 5825 5824 5824 5823 5822 5822 5821 5821 5820 5820 5819 5818 5818 5817 5817 5816 5816 5816 5815 5815 5814 5813 5813 5812 5812 5811 5811 5810
5826 5826 5825 5825 5825 5824 5824 5824 5824 5824 5824 5823 5823 5823 5822 5822 5821 5821 5820 5819 5818 5818 5817 5817 5816 5816 5815 5814 5814 5814 5812 5812 5812 5811 5811 5810 5809 5808 5808 5807 5806 5806 5805
5822 5822 5822 5821 5821 5821 5820 5821 5821 5821 5821 5820 5820 5819 5819 5819 5818 5818 5817 5816 5815 5814 5813 5813 5812 5811 5811 5810 5810 5810 5809 5808 5808 5807 5806 5806 5805 5804 5803 5802 5801 5800 5800
5819 5819 5818 5817 5817 5816 5816 5817 5817 5817 5817 5817 5816 5816 5816 5815 5815 5814 5813 5812 5811 5810 5809 5809 5808 5807 5807 5806 5806 5806 5805 5804 5804 5803 5802 5801 5800 5799 5798 5797 5796 5795 5794
5815 5815 5814 5813 5812 5812 5812 5813 5813 5813 5813 5813 5813 5813 5812 5812 5811 5810 5809 5808 5807 5806 5806 5805 5804 5803 5803 5802 5802 5802 5801 5800 5799 5799 5798 5797 5795 5794 5793 5792 5791 5790 5789
5811 5811 5810 5810 5809 5808 5808 5809 5809 5809 5810 5809 5809 5809 5808 5807 5807 5806 5805 5804 5803 5802 5802 5801 5800 5799 5799 5799 5798 5797 5797 5796 5795 5795 5793 5792 5790 5789 5788 5787 5786 5784 5783
5808 5807 5807 5806 5805 5805 5805 5805 5805 5805 5805 5805 5805 5804 5804 5803 5803 5802 5801 5800 5799 5798 5798 5797 5796 5795 5795 5795 5794 5793 5792 5791 5790 5789 5788 5787 5785 5784 5783 5782 5781 5779 5778
5803 5803 5802 5802 5801 5801 5801 5801 5801 5801 5801 5801 5800 5800 5800 5799 5798 5797 5796 5796 5795 5794 5794 5793 5792 5791 5791 5790 5789 5788 5787 5786 5786 5785 5783 5782 5781 5779 5778 5776 5775 5774 5773
5798 5798 5798 5798 5797 5797 5797 5797 5797 5797 5797 5797 5796 5795 5795 5794 5794 5793 5792 5791 5791 5790 5789 5788 5788 5787 5786 5785 5784 5783 5782 5781 5781 5780 5778 5777 5776 5774 5773 5771 5770 5769 5768
5793 5793 5793 5793 5793 5792 5792 5792 5792 5792 5792 5792 5791 5791 5790 5790 5789 5788 5788 5787 5786 5785 5784 5783 5783 5782 5781 5780 5779 5778 5777 5776 5775 5774 5773 5771 5770 5768 5767 5766 5764 5763 5761